Regional Weather Roundup
Issued by NWS

Home | Current Version | Previous Version | Text Only | Print | Product List | Glossary Off
Versions: 1 2 3 4 5 6 7 8 9 10 11 12 13 14 15 16 17 18 19 20 21 22 23 24 25 26 27 28 29 30 31 32 33 34 35 36 37 38 39 40 41 42 43 44 45 46 47 48 49 50

000
ASUS43 KMKX 270400
RWRWI

WISCONSIN REGIONAL WEATHER ROUNDUP
NATIONAL WEATHER SERVICE MILWAUKEE/SULLIVAN WI
1100 PM CDT TUE JUL 26 2016

NOTE: "FAIR" INDICATES FEW OR NO CLOUDS BELOW 12,000 FEET WITH NO
SIGNIFICANT WEATHER AND/OR OBSTRUCTIONS TO VISIBILITY.

WIZ001-002-006>008-014>016-023>028-270500-
NORTHWEST WISCONSIN

CITY           SKY/WX    TMP DP  RH WIND       PRES   REMARKS
SUPERIOR ARPT  CLOUDY    71  64  80 S5        29.96S
ASHLAND        CLOUDY    72  67  84 SW5       29.97R
HAYWARD        LGT RAIN  70  66  87 CALM      30.01S
SIREN          NOT AVBL
CUMBERLAND     MOCLDY    70  61  73 NW5       30.01S
RICE LAKE      MOCLDY    73  64  71 W3        30.02R
CHETEK         MOCLDY    76  68  74 NW5       30.00R
LADYSMITH      PTCLDY    73  67  82 S5        30.00S
EAU CLAIRE     NOT AVBL
MENOMONIE      CLEAR     76  66  73 SW3       30.00R
NEW RICHMOND   CLOUDY    72  62  69 NE3       30.01S
OSCEOLA        CLOUDY    72  62  70 CALM      30.02S
$$

WIZ003>005-009-010-017-018-270500-
NORTH CENTRAL WISCONSIN

CITY           SKY/WX    TMP DP  RH WIND       PRES   REMARKS
MANITOWISH WTR MOCLDY    66  66 100 CALM      30.00S
ARBOR VITAE    PTCLDY    69  67  91 CALM      30.00F
WOODRUFF       PTCLDY    69  67  91 CALM      30.00F
RHINELANDER    CLOUDY    68  63  84 CALM      30.01F
EAGLE RIVER    CLOUDY    64  64 100 CALM      30.00S FOG
LAND O LAKES   CLOUDY    64  63  98 CALM      30.01S
PHILLIPS       PTCLDY    69  68  96 CALM      29.99S
TOMAHAWK       CLOUDY    66  63  90 CALM      30.01S
MEDFORD        CLEAR     71  67  87 SW3       30.01S
MERRILL        MOCLDY    70  67  91 CALM      30.00S
$$

WIZ029-030-035-036-043>047-270500-
CENTRAL WISCONSIN

CITY           SKY/WX    TMP DP  RH WIND       PRES   REMARKS
WAUSAU         CLEAR     74  67  78 VRB3      29.98F
MOSINEE        CLEAR     70  68  94 SW7       30.01S
MARSHFIELD     CLEAR     71  66  84 SW5       30.01R
STEVENS POINT  CLEAR     75  66  74 SW6       30.01S
WAUPACA        CLEAR     75  69  80 CALM      29.99S
WAUTOMA        PTCLDY    73  68  84 SW3       30.00F
WISC RAPIDS    CLEAR     74  65  73 W6        30.01S
CAMP DOUGLAS   NOT AVBL
$$

WIZ011>013-019>022-031-037>040-048>050-270500-
NORTHEAST WISCONSIN

CITY           SKY/WX    TMP DP  RH WIND       PRES   REMARKS
ANTIGO         PTCLDY    71  66  84 CALM      30.01F
SHAWANO        CLEAR     76  68  76 SW3       29.98S
OCONTO         CLEAR     75  72  91 SW5       29.94F
STURGEON BAY   CLEAR     75  68  78 SW7       29.96F
GREEN BAY      CLEAR     74  70  87 SW3       29.97F
MANITOWOC      NOT AVBL
APPLETON       PTCLDY    75  64  69 SW7       29.98S
CLINTONVILLE   CLEAR     73  64  73 CALM      29.98S
OSHKOSH        CLEAR     74  66  76 S5        29.99S
$$

WIZ032>034-041-042-053>061-270500-
SOUTHWEST WISCONSIN

CITY           SKY/WX    TMP DP  RH WIND       PRES   REMARKS
LA CROSSE      CLEAR     78  69  73 S5        29.99S HX  80
SPARTA         CLEAR     68  66  92 CALM      30.02S
VIROQUA        CLEAR     72  66  81 S6        30.03S
BOSCOBEL       CLEAR     70  68  93 W3        30.02S
PRAIRIE DU CHI CLEAR     72  67  83 CALM      30.01S
PLATTEVILLE    CLEAR     74  68  82 CALM      30.03S
$$

WIZ056-057-062-063-064-067-068-270500-
SOUTH CENTRAL WISCONSIN

CITY           SKY/WX    TMP DP  RH WIND       PRES   REMARKS
REEDSBURG      MOCLDY    73  69  87 CALM      30.01S
BARABOO/DELLS  PTCLDY    71  64  78 CALM      30.02S
LONE ROCK      NOT AVBL
MINERAL POINT  CLEAR     73  68  83 CALM      30.04S
MADISON        CLEAR     72  65  78 CALM      30.01F
MIDDLETON      CLEAR     70  67  91 CALM      30.03S
WATERTOWN      CLEAR     71  69  95 CALM      30.02S
MONROE         CLEAR     73  64  73 SW7       30.03S
JANESVILLE     CLEAR     73  66  78 CALM      30.01
$$

WIZ051-052-058>065-066-070>072-270500-
SOUTHEAST WISCONSIN

CITY           SKY/WX    TMP DP  RH WIND       PRES   REMARKS
MILWAUKEE      CLEAR     77  62  59 CALM      30.02R
WAUKESHA       CLEAR     70  63  78 CALM      30.03R
MILWAUKEE/TIMM CLEAR     73  57  56 CALM      30.02R
RACINE         CLEAR     74  63  68 SW3       30.03R
BURLINGTON     CLEAR     68  66  93 CALM      30.01F
KENOSHA        CLEAR     70  63  78 SW3       30.02R
FOND DU LAC    CLEAR     72  66  81 SW6       30.00F
SHEBOYGAN      CLEAR     69  62  78 S5        29.99F
WEST BEND      CLEAR     70  64  83 CALM      30.01F
JUNEAU         CLEAR     71  66  85 CALM      30.02F
$$

LSZ147-162-270500-
LAKE SUPERIOR

STATION/POSITION TIME  TEMP    WIND        PRES    WAVE
                       AIR SEA DIR/SP/G            HT/PER
                 (UTC) (F)     (DEG/KT/KT) (MB)    (FT/S)
W MID LAKE BUOY  0250   67 63  250/  8/ 10 1012.9R   0
DEVILS ISLAND    0300   70     230/  9/ 11 1013.8R
PORT WING        0240   74     160/  5/  5 1014.2R
SAXON HARBOR     0300   73     200/  5/  6 1013.5S
$$

LMZ867-665-643>646-270500-
LAKE MICHIGAN

STATION/POSITION TIME  TEMP    WIND        PRES    WAVE
                       AIR SEA DIR/SP/G            HT/PER
                 (UTC) (F)     (DEG/KT/KT) (MB)    (FT/S)
CHAMBERS ISLAND  0300   78     200/  9/ 13 1013.5S
S GREEN BAY BUOY 0300   77 74  210/  8/ 10   N/A
N MID LAKE BUOY  0250   72 69  210/ 17/ 19 1012.2F   3/ 4
NORTHPORT PIER   0300   77     170/  2/  7 1013.5R
SISTER BAY       0321   81     250/ 12/ 14   N/A
ALGOMA LAKESHORE 0313          220/  5/  7   N/A
KEWAUNEE LAKESHO 0300          200/  7/  7   N/A
SHEBOYGAN LAKESH 0300   75     220/  7/  8 1016.0R
PORT WASHINGTON  0340   64      CALM  /  2 1016.6S
ATWATER BUOY     0300   69 62  170/  6/  6 1017.3F
MILWAUKEE LAKESH 0310   72     260/  1/  1   N/A
S MID LAKE BUOY  0250   76 76  160/  8/  8 1015.3S   0
KENOSHA   LAKESH 0300   76     210/  5/  8 1015.6S
$$

TC  - TEMPERATURE IN CELSIUS
VSB - VISIBILITY IN STATUTE MILES
WCI - WIND CHILL INDEX
HX  - HEAT INDEX





USA.gov is the U.S. government's official web portal to all federal, state and local government web resources and services.